DIRECTV 15

Last updated on Sun Jun 21 2026 00:03:06 GMT+0000 (Coordinated Universal Time)

1 40663U 15026A 26171.01518352 -.00000108 00000+0 00000+0 0 9993 2 40663 0.0158 57.5517 0000218 316.6058 156.6548 1.00273256 40493
UTC large
Height (km)
Speed (km/s)
/
Latitude / Longitude
Inclination (degrees)
Orbital Period (minutes)
Azimuth
Elevation
Range (km)
Doppler Factor

Next 0 passes for location: London (51.5072 / 0.1276)

No passes found over London.
DIRECTV 15